Wind_Speed
32 32 32 32 32 31 30 31 31 32 33 34 35 35 36 36 36 35 35 35 35 34 34 34 33 33 32 31 30 29 29 29 29 29 28 29 29 29 28 28 28 29 29 28 28 29 29 31 33 33 33 33 32 32 34 36 35 36 37 38 39 40 40 39 38 39 39 35 33 34 34 33 33 32 30 28 27 27 28 27 27 26 26 27 26
34 34 34 33 33 32 32 32 33 34 34 35 35 36 36 37 37 37 36 36 36 35 35 35 35 35 35 34 32 31 30 30 30 29 28 28 29 30 30 30 29 29 29 29 28 29 30 30 33 35 35 35 35 33 33 35 36 38 37 36 38 42 41 40 40 40 40 37 35 36 35 33 33 33 31 29 29 29 29 28 28 28 28 28 27
34 34 34 34 33 33 33 33 34 34 35 35 36 36 37 37 38 38 38 37 37 37 37 36 37 37 37 36 35 33 32 32 31 30 29 28 29 30 31 31 30 29 29 30 29 29 30 30 32 34 35 35 35 35 35 34 35 38 38 35 37 41 41 40 40 41 40 39 37 37 35 34 34 34 33 32 31 30 29 29 29 29 28 27 27
35 35 35 35 35 35 35 35 35 35 35 36 36 37 37 38 38 38 39 39 38 38 38 38 38 38 38 39 38 37 35 35 33 32 30 29 29 30 31 32 32 31 30 31 30 29 29 30 31 33 35 35 34 35 36 35 34 36 38 38 37 39 40 40 40 41 42 41 39 37 37 36 35 35 35 34 31 29 29 30 30 29 28 28 28
36 36 36 36 36 36 36 35 35 36 36 37 37 38 38 38 39 39 40 40 40 40 40 40 40 40 40 40 40 39 38 38 37 35 33 31 30 30 31 32 32 33 32 32 32 31 29 29 31 33 34 34 35 35 35 36 36 35 37 40 41 39 39 40 39 41 42 41 40 39 38 37 37 36 37 35 31 30 31 33 32 29 30 31 29
37 37 37 37 37 37 36 36 36 37 37 38 38 38 38 39 39 40 40 41 41 41 41 41 41 41 41 41 41 41 41 41 39 37 35 34 32 31 32 32 33 33 33 33 33 33 31 30 30 32 33 34 35 36 36 36 37 35 35 38 42 42 41 40 40 41 42 41 40 40 39 40 39 39 39 37 34 33 34 35 33 31 34 34 31
38 38 38 38 38 37 37 37 37 38 38 38 38 38 39 39 40 40 41 41 42 42 43 43 43 43 42 43 43 43 43 43 41 40 38 36 35 33 33 33 34 34 34 34 35 35 34 32 31 32 33 34 34 36 37 37 37 35 33 34 38 42 41 40 41 43 43 42 41 40 41 42 42 41 41 40 37 36 35 36 35 34 37 36 32
39 40 39 39 38 37 38 38 38 38 38 38 39 39 39 40 40 41 42 42 43 43 43 43 44 44 44 44 45 45 45 44 43 42 41 39 38 36 35 34 35 35 35 35 36 36 36 35 33 32 33 33 33 35 37 38 37 36 33 33 35 40 42 41 41 43 43 42 41 40 42 43 44 44 43 41 40 38 35 36 38 38 38 37 34
40 40 40 39 38 38 38 38 38 38 38 38 39 39 40 40 41 42 42 43 43 44 44 44 44 45 45 46 46 46 46 46 45 44 43 42 41 40 38 36 36 36 36 36 36 37 38 37 36 34 33 33 33 34 36 38 38 37 36 36 36 39 42 43 42 42 42 41 41 41 41 43 45 47 45 43 41 39 38 41 43 42 41 39 36
40 40 39 39 38 38 38 38 38 38 38 38 39 39 40 40 41 42 42 43 43 44 45 45 46 46 47 47 48 48 48 48 48 47 46 45 44 42 41 39 37 37 37 37 37 38 39 39 38 37 36 34 32 33 35 38 38 38 39 39 38 38 41 44 43 43 43 43 42 42 42 43 46 48 47 45 44 43 43 45 46 46 45 41 36
40 39 39 38 38 38 38 38 37 38 38 38 38 39 39 40 41 42 43 43 44 45 46 47 47 48 49 49 49 49 49 49 49 49 48 48 47 46 44 42 40 38 37 38 38 38 39 40 40 39 38 37 34 32 34 36 37 38 40 41 40 37 37 41 44 44 44 43 43 43 44 45 47 49 48 48 49 48 47 47 47 47 46 42 38
39 38 38 38 37 37 37 38 38 38 38 38 38 39 39 40 41 42 43 44 45 46 47 47 48 49 50 50 51 51 51 52 51 51 51 50 50 49 47 46 44 41 39 38 39 39 39 40 41 40 39 39 37 34 34 35 36 38 40 42 42 40 37 38 41 43 44 45 45 45 46 46 47 48 49 50 52 51 49 48 47 47 46 43 40
38 38 37 37 37 37 37 37 38 38 38 39 39 40 41 42 43 44 45 46 47 47 48 49 50 51 51 52 53 53 54 54 54 54 54 53 53 52 51 49 48 46 43 40 39 40 40 40 40 41 41 40 40 38 35 35 35 36 39 41 42 41 39 40 41 41 41 44 47 47 48 48 47 48 51 52 53 53 52 49 46 46 45 43 41
37 37 37 37 37 37 37 38 38 39 39 40 41 41 42 43 44 44 45 46 47 48 49 50 50 51 52 53 54 54 55 55 55 55 55 55 55 54 54 53 51 50 48 44 41 41 42 42 41 40 41 41 42 40 38 36 35 34 36 39 41 41 41 42 42 42 41 41 45 48 49 49 50 51 51 51 52 53 53 49 45 43 43 41 41
36 36 36 37 38 38 38 38 38 39 39 40 41 41 42 43 44 45 46 47 48 49 50 51 52 53 54 55 56 56 57 57 57 57 57 57 57 56 55 55 54 53 52 50 46 43 42 43 43 41 40 41 43 42 40 38 36 34 34 35 38 39 41 41 42 43 43 42 43 46 48 50 51 51 50 49 50 51 52 49 45 44 43 42 43
35 36 37 38 38 38 38 37 37 38 38 39 40 41 42 43 44 45 47 48 49 50 51 52 53 54 56 57 58 59 60 60 61 61 61 61 60 60 59 57 56 55 54 53 51 48 44 43 44 44 41 41 42 43 43 41 38 35 34 34 35 37 38 39 41 43 45 44 43 44 46 48 49 50 49 48 48 49 51 50 47 45 45 45 44
36 37 37 37 37 37 37 36 37 37 38 39 40 42 42 43 44 45 46 48 49 50 52 53 54 55 56 57 58 59 60 61 62 62 63 63 64 64 63 62 60 58 56 55 53 52 50 46 45 45 44 42 41 43 44 43 40 37 35 35 35 36 36 37 39 41 44 45 44 43 43 45 47 48 49 48 48 49 52 51 48 47 47 46 44
36 36 36 36 35 35 36 36 36 37 38 39 40 41 41 42 43 44 46 47 48 50 51 52 53 54 55 56 56 57 58 59 60 60 61 62 62 63 64 65 64 63 61 58 55 54 53 51 47 46 46 44 42 42 43 43 42 40 38 36 36 35 35 36 37 39 42 44 44 43 42 43 45 47 48 49 49 49 50 50 48 46 46 46 45
35 34 34 34 34 34 35 35 36 37 37 38 38 39 40 41 42 44 45 46 48 49 50 51 52 52 53 54 55 56 57 58 59 59 60 60 61 61 62 63 64 64 64 62 59 56 54 54 51 49 47 47 45 43 42 42 43 42 41 39 37 35 34 35 35 36 39 41 42 41 41 41 42 43 45 46 47 47 48 49 47 44 45 47 47
32 32 32 32 33 33 34 34 35 35 35 36 37 38 39 40 42 43 44 45 46 47 48 49 50 51 52 53 54 55 56 57 58 59 60 60 60 60 61 61 62 63 63 63 62 59 56 54 53 51 50 49 48 45 43 42 42 43 43 41 38 36 34 34 34 34 36 38 39 38 37 37 39 42 44 44 45 46 47 49 49 46 45 47 48
30 30 31 31 32 32 32 32 32 33 34 35 36 38 39 40 41 42 43 44 45 46 47 48 50 51 52 53 54 54 55 57 58 58 59 59 59 59 59 60 60 61 62 62 61 60 58 56 53 52 51 51 50 48 45 43 41 42 43 42 39 37 35 34 34 35 34 35 36 35 35 35 36 40 43 44 45 46 48 50 51 49 48 49 48
29 29 30 30 30 30 30 30 31 32 34 35 36 37 38 39 40 41 42 43 44 45 46 47 48 49 50 51 53 54 55 56 57 57 57 57 57 57 57 57 57 58 59 59 59 58 57 56 54 52 51 52 52 50 47 45 43 41 42 42 40 39 37 35 35 35 34 33 33 33 33 34 34 35 38 41 42 43 45 49 50 50 49 49 47
28 28 28 28 28 28 29 30 32 33 34 35 36 37 37 38 39 39 40 41 42 43 44 45 46 46 48 50 52 54 55 56 56 56 55 54 54 53 52 52 52 52 54 55 56 56 55 54 53 52 51 52 54 52 49 47 44 42 41 41 40 38 37 36 35 35 34 33 32 32 33 34 35 36 37 38 39 40 42 45 47 48 48 48 46
26 26 26 26 27 28 29 31 32 33 34 34 35 35 36 37 37 38 39 40 41 42 42 43 43 44 46 48 51 54 56 57 56 54 52 51 50 49 48 47 46 46 47 49 51 52 52 51 52 51 50 51 53 53 50 48 46 43 41 40 39 38 37 36 34 33 33 33 33 32 31 32 35 38 40 40 40 41 41 43 46 48 49 48 48
24 24 25 26 27 28 30 31 32 32 33 33 33 34 35 35 36 37 38 39 40 40 41 41 42 43 45 47 50 53 55 56 54 51 50 49 48 46 44 42 41 40 40 42 45 47 48 49 50 50 50 50 51 51 50 49 48 45 43 41 39 38 37 36 34 33 33 33 33 33 33 34 37 41 43 43 41 41 40 41 43 46 47 47 47
22 24 25 26 27 28 29 30 31 31 31 31 32 32 33 34 35 36 37 38 39 39 40 40 41 42 44 47 50 53 55 54 51 48 48 47 46 44 42 40 38 36 35 36 38 41 44 46 47 49 49 49 50 49 48 48 48 47 44 42 40 39 38 37 35 35 36 37 38 39 40 40 41 44 45 45 45 44 43 43 43 43 44 44 45
23 24 25 26 27 28 29 29 29 29 29 29 30 31 32 33 35 36 37 38 38 39 39 40 41 42 44 46 49 53 55 54 49 47 46 45 42 40 39 37 36 34 33 32 33 36 40 43 45 47 48 48 48 47 46 46 48 47 46 45 41 38 38 38 38 39 42 41 38 40 44 44 43 44 45 45 45 44 43 43 43 44 43 43 43
23 24 25 26 27 27 28 28 28 27 27 28 28 30 31 33 34 36 36 37 38 39 40 40 41 42 44 46 49 53 55 53 49 47 46 43 39 36 34 33 33 32 31 31 30 32 36 40 43 45 46 46 46 46 45 44 46 47 45 44 41 37 38 41 41 42 45 42 36 35 40 43 43 43 44 44 44 44 43 42 42 43 43 43 44
24 24 25 26 26 27 27 26 26 26 25 26 27 29 31 33 34 35 36 38 39 39 40 41 42 43 45 46 49 52 55 54 50 49 49 45 40 36 32 30 29 29 29 29 29 29 32 36 40 42 42 39 39 43 43 42 44 46 43 40 38 37 38 41 41 43 45 44 40 37 36 38 40 41 41 42 43 43 43 43 44 45 46 46 47
24 24 25 25 25 26 25 25 25 24 24 25 26 29 31 32 34 36 37 38 39 40 40 41 42 43 46 48 50 53 56 55 52 51 51 47 42 38 33 29 27 26 26 27 27 27 29 32 36 39 39 34 30 35 41 41 41 44 44 41 40 40 41 41 42 43 43 42 40 38 35 35 38 39 38 38 38 38 38 39 41 44 47 50 51
23 24 24 25 25 25 24 24 23 23 23 24 26 28 30 32 34 36 37 38 40 40 41 41 42 43 46 48 50 53 57 56 52 52 51 47 42 38 34 29 26 24 23 24 25 26 27 29 32 35 37 35 29 29 36 40 39 40 41 41 41 42 44 44 44 44 42 38 36 36 35 36 39 39 37 36 36 36 36 36 37 39 43 47 50
22 23 23 24 24 23 23 23 22 22 22 24 25 28 30 32 34 35 37 38 39 41 41 41 42 44 46 48 50 52 55 56 53 51 51 48 43 38 34 29 26 23 22 22 22 23 24 26 28 30 33 36 34 29 31 35 38 38 38 40 42 43 44 46 48 48 46 42 38 36 37 40 41 41 39 39 39 38 36 36 36 37 39 41 43
21 22 22 22 22 22 21 21 21 21 21 23 25 27 30 31 33 34 36 38 39 40 41 42 42 43 45 48 50 52 55 56 54 52 52 49 44 40 35 29 25 22 20 19 20 21 21 23 25 27 29 34 36 33 30 32 35 37 38 39 41 44 46 47 49 49 48 46 42 39 40 42 43 43 43 42 40 37 35 36 38 39 40 40 40
21 21 21 21 21 20 19 19 19 19 21 22 25 27 29 30 32 33 35 37 38 39 41 42 42 43 45 47 50 51 54 56 55 53 52 50 45 41 36 31 26 23 19 18 17 18 19 20 21 23 26 30 34 35 33 32 34 38 41 41 41 43 46 47 47 45 44 43 42 41 41 42 44 45 45 43 41 38 36 36 37 38 39 39 39
20 20 20 20 19 19 18 17 17 19 20 22 25 27 28 29 31 32 34 36 37 39 40 41 42 42 44 47 49 50 53 55 55 53 52 51 46 41 37 32 28 25 21 18 16 15 16 17 18 20 23 27 33 36 35 32 31 34 39 42 44 45 46 46 47 46 44 43 42 42 43 44 45 45 43 42 41 39 37 36 36 37 37 38 38
19 19 19 18 18 17 17 17 17 18 20 22 24 26 27 29 30 32 33 35 37 38 40 41 41 41 43 46 48 49 51 54 55 54 53 51 47 42 37 32 28 24 22 19 17 15 14 15 15 16 18 22 29 34 36 35 34 34 34 36 40 44 47 48 48 46 45 44 44 44 45 47 47 46 45 43 42 41 39 38 37 37 37 37 38
17 17 17 17 17 16 16 17 17 18 20 22 25 26 27 28 30 31 33 35 36 37 38 40 40 40 41 44 46 48 50 53 55 55 53 51 48 43 38 34 29 25 22 20 18 16 14 13 13 14 16 18 24 30 33 33 34 37 38 36 34 36 40 44 47 48 48 48 47 47 48 48 47 46 46 45 44 43 41 40 38 38 38 39 39
17 17 17 17 16 16 16 16 17 18 20 23 25 27 28 29 31 32 34 35 36 36 37 39 39 39 40 42 45 47 48 51 53 54 53 51 49 44 39 35 31 27 24 21 19 17 14 12 11 12 13 16 20 26 31 30 29 30 36 40 40 37 35 35 38 41 44 46 47 48 49 49 47 47 47 46 45 44 43 41 40 40 40 40 40
16 17 17 17 16 16 16 17 18 19 22 24 26 28 29 30 31 33 34 34 35 36 37 38 39 39 39 40 43 45 46 47 50 52 52 51 49 45 41 37 33 29 25 23 20 18 16 14 11 10 10 13 16 21 28 31 29 25 25 30 37 41 42 40 38 37 38 39 40 41 42 43 45 46 45 44 43 43 43 42 42 41 41 41 42
16 16 17 16 16 16 17 17 18 20 22 24 25 27 28 29 30 32 33 34 35 35 36 37 39 39 38 39 41 44 45 45 47 50 51 51 50 47 43 38 34 30 27 24 22 20 18 16 13 11 9 10 13 16 22 28 31 29 25 23 25 30 34 38 40 40 40 39 38 37 36 37 40 42 43 43 43 43 43 42 42 42 42 42 42
16 16 16 16 17 17 18 18 19 21 23 24 25 26 28 29 30 31 32 33 34 35 35 36 38 38 38 38 39 41 44 45 45 48 50 50 50 48 45 40 36 33 29 26 23 21 20 18 16 13 10 9 10 13 16 20 25 28 28 26 24 23 24 26 29 32 35 37 39 39 39 39 39 40 41 42 42 42 42 42 42 42 42 42 43
16 16 17 17 17 18 18 19 20 21 23 25 26 27 27 28 29 31 32 33 34 34 35 36 37 38 38 38 38 40 42 44 44 45 47 49 49 49 47 43 39 35 31 28 24 22 20 19 18 16 13 10 9 10 12 15 19 23 25 26 25 24 24 24 24 25 26 29 31 34 37 38 39 39 39 40 40 41 42 42 42 43 43 42 42
15 16 17 17 17 18 19 20 21 23 24 26 27 27 27 28 29 31 32 33 33 34 35 35 36 37 38 38 38 38 40 42 43 43 45 47 48 48 47 45 41 37 33 30 27 23 21 19 18 17 16 13 10 9 10 12 14 17 20 22 23 24 23 23 24 24 24 25 26 27 29 31 32 34 35 36 37 38 38 39 39 39 39 39 39
15 16 17 17 18 18 19 20 22 23 25 26 27 27 28 28 29 30 31 32 33 34 35 35 35 36 37 37 37 37 38 40 42 42 43 44 46 46 46 45 42 39 35 32 29 26 23 20 18 18 17 15 13 10 9 10 12 13 14 16 19 21 22 22 22 23 23 24 25 25 26 27 27 28 29 29 30 31 31 32 32 32 32 33 33
16 17 17 18 19 20 21 22 23 24 25 27 28 28 28 28 29 29 30 31 32 33 34 34 35 35 36 36 37 37 37 38 40 41 41 42 43 44 45 44 43 41 37 34 30 27 25 22 20 18 17 17 15 13 11 9 10 11 12 13 14 16 18 20 21 21 21 22 23 24 25 25 26 26 26 27 27 27 27 27 27 27 28 28 28
17 18 18 19 20 21 22 23 24 25 26 27 28 29 29 29 29 29 30 31 32 32 33 34 34 34 34 35 36 37 37 37 39 40 41 41 41 42 43 43 43 41 39 36 33 30 27 25 22 20 18 17 16 15 13 11 10 10 11 12 12 13 13 15 17 18 19 19 20 21 22 23 23 23 24 24 24 25 25 25 25 24 25 25 26
19 19 20 21 22 23 24 25 26 26 27 28 29 30 30 30 30 30 31 31 32 32 33 33 33 33 33 34 35 36 36 37 37 38 39 40 40 40 40 41 42 41 40 38 35 32 29 26 24 21 19 17 16 16 15 14 12 10 10 10 11 12 12 12 13 14 15 16 17 18 19 19 20 21 21 21 21 22 22 23 23 22 22 22 22
20 21 21 22 23 24 25 26 27 28 28 29 30 31 32 32 32 31 31 31 32 32 32 33 33 33 33 33 33 34 35 35 36 37 38 39 39 39 38 39 40 41 40 39 37 34 31 28 25 23 21 19 17 16 15 15 14 12 11 10 10 11 12 12 12 13 13 14 14 15 15 16 16 17 18 18 19 19 19 20 20 20 20 19 19
21 22 22 23 24 25 25 27 28 29 29 29 30 31 32 33 33 33 32 32 32 32 32 32 33 33 33 33 32 32 32 33 34 35 36 37 38 38 38 38 38 39 39 39 38 37 34 31 27 24 22 20 18 17 16 15 15 14 13 12 11 10 11 12 12 12 12 13 13 14 14 14 14 15 15 16 17 17 18 18 19 19 19 19 18
22 22 23 24 25 25 26 27 28 29 30 30 30 31 32 33 33 33 33 33 32 32 32 32 32 32 33 32 32 32 32 32 33 34 35 35 36 37 38 37 37 37 37 38 38 37 36 33 30 27 23 21 19 18 17 15 15 14 14 13 12 11 11 11 12 13 13 13 13 13 13 13 14 14 15 15 16 17 17 17 18 18 18 18 18
23 23 24 25 25 26 27 28 28 29 30 31 31 32 32 33 33 33 33 33 33 32 32 32 31 32 32 33 33 33 32 32 32 32 33 34 35 36 36 37 37 36 36 36 36 37 36 35 33 30 27 23 21 19 18 16 15 15 14 14 13 13 12 12 12 13 13 13 13 13 13 13 14 15 15 16 16 16 16 17 16 16 16 16 16
Wind_Direction
280 281 281 281 283 285 286 287 288 289 289 287 286 286 286 287 287 287 287 288 289 290 292 294 294 295 295 295 296 297 298 299 299 300 301 303 303 303 304 306 307 308 307 300 288 281 278 274 272 271 266 262 261 256 250 247 245 245 248 246 240 237 235 235 233 232 233 232 228 226 227 228 231 233 233 234 235 237 238 239 240 241 242 243 243
279 280 282 283 285 287 289 289 289 289 289 287 286 286 286 287 287 287 287 287 289 290 291 293 293 293 293 293 294 295 295 296 296 296 297 298 299 300 301 302 303 304 306 304 295 284 278 275 272 271 269 265 264 262 257 252 248 247 252 248 239 236 235 234 234 233 234 234 230 228 228 228 231 234 235 234 235 236 238 238 238 239 240 242 242
280 283 285 287 288 290 290 290 290 289 288 287 286 286 286 286 286 286 287 287 288 289 291 292 292 292 292 292 293 294 294 294 293 293 293 294 295 296 297 299 300 301 302 302 299 291 282 276 273 271 268 266 265 264 262 259 253 249 251 248 238 235 234 233 234 233 234 234 231 230 230 228 230 234 235 235 234 235 238 239 238 238 239 241 242
283 285 287 289 291 292 291 290 289 288 287 286 286 286 286 287 287 287 287 287 288 289 290 291 291 291 291 291 292 293 294 294 293 292 292 292 292 293 294 296 297 297 298 298 298 296 288 279 273 271 268 265 264 265 264 262 258 253 250 246 239 236 235 235 236 235 234 233 230 230 232 230 229 232 234 236 236 237 240 240 238 238 240 241 242
284 286 287 289 291 292 291 290 289 288 287 286 286 287 287 288 288 288 287 287 288 289 289 290 290 290 290 290 292 293 294 294 294 294 293 292 290 290 290 292 293 294 295 295 295 295 292 283 274 271 269 266 264 265 265 263 261 258 252 245 239 238 238 237 238 238 236 233 230 230 233 232 231 232 234 235 236 234 235 237 236 235 239 241 241
285 287 288 290 291 291 290 289 288 287 287 286 286 287 287 287 287 287 287 287 287 287 288 288 288 289 289 290 291 292 294 294 294 294 294 293 291 289 287 288 289 291 291 292 292 292 292 287 278 271 268 265 264 264 264 262 260 261 258 248 238 236 238 238 238 240 239 236 232 231 233 233 232 232 233 233 233 232 233 236 236 233 236 238 239
286 287 289 291 291 291 290 289 288 288 287 287 286 286 286 286 286 286 286 286 286 287 288 288 288 288 288 289 290 291 293 293 293 293 293 293 292 290 288 286 286 287 287 288 289 290 290 289 284 276 269 265 264 264 264 262 259 259 261 255 243 237 239 239 239 242 241 237 235 233 233 234 233 232 232 231 231 231 233 237 239 235 235 237 240
285 287 289 291 291 290 290 289 288 287 287 287 286 286 286 286 286 287 287 287 288 288 289 289 289 289 289 289 290 291 291 291 291 292 292 292 292 291 289 287 285 284 284 284 285 286 287 288 287 283 276 269 265 265 265 263 260 257 257 259 253 244 241 240 241 243 241 236 235 236 237 237 235 232 231 230 231 232 233 237 238 236 235 237 241
285 288 289 290 290 290 290 289 288 287 287 287 287 288 288 288 289 289 289 289 289 290 290 290 290 290 290 290 290 290 290 290 290 290 290 290 291 291 290 288 286 283 282 281 281 282 284 285 285 284 282 276 267 264 264 263 261 257 253 253 255 250 243 241 241 242 241 239 238 241 243 243 238 235 232 230 231 232 232 235 237 236 235 237 240
286 288 288 289 290 290 289 288 288 288 288 288 289 290 290 290 291 291 291 291 291 291 291 291 291 290 290 290 290 289 289 289 289 289 289 289 289 290 289 287 285 283 281 279 278 278 280 281 282 282 282 281 274 265 262 261 260 258 254 251 253 252 245 241 241 241 241 242 242 245 248 247 240 235 233 231 231 231 231 232 235 236 237 238 239
285 287 288 290 291 291 290 290 289 289 289 290 290 291 291 291 292 292 292 292 292 292 292 291 291 291 290 290 290 289 289 289 289 289 289 289 289 289 288 287 284 281 278 277 276 276 276 277 279 279 279 280 278 271 264 260 258 256 254 252 253 254 248 242 241 241 240 241 242 244 248 247 240 235 233 231 231 231 231 233 235 236 237 238 237
285 288 290 291 291 291 291 291 291 291 291 291 291 292 292 292 292 293 293 293 292 292 292 292 291 291 291 290 290 290 289 289 289 288 288 288 288 288 288 287 285 282 277 274 274 274 273 274 275 276 276 276 277 274 268 263 258 254 253 252 251 252 250 244 242 241 240 241 242 244 246 247 243 237 233 232 232 232 233 235 236 236 237 238 238
288 290 291 291 291 291 292 292 292 293 293 293 293 294 294 294 294 294 294 294 294 294 293 293 292 292 292 291 291 290 290 289 289 288 287 286 286 286 286 285 285 283 280 274 271 271 271 271 272 273 274 274 275 274 270 265 260 255 252 251 251 251 251 247 243 243 242 240 240 242 243 244 243 239 236 234 234 233 233 235 237 236 237 239 240
288 289 290 290 291 292 292 293 294 294 295 295 295 295 295 295 296 296 296 296 296 295 295 295 294 294 293 292 292 291 290 290 289 288 287 286 285 284 284 283 282 282 281 278 273 268 268 268 269 270 271 271 271 272 271 268 264 259 254 252 251 250 250 248 245 244 244 242 240 240 241 241 239 238 237 236 236 235 234 236 238 238 239 240 241
287 288 290 291 292 293 294 295 296 297 297 298 298 298 298 298 298 298 298 297 297 297 296 296 295 294 294 293 292 291 290 289 288 287 286 285 284 283 282 281 280 279 279 278 275 270 266 265 266 267 268 268 268 269 270 268 266 261 256 253 251 249 248 248 247 246 245 244 243 242 242 241 239 237 237 236 236 236 236 237 240 240 240 240 239
287 290 291 292 293 295 296 297 298 299 300 300 300 300 300 300 299 299 299 298 298 297 297 296 296 295 294 293 292 291 290 289 287 286 285 284 282 281 280 279 278 276 275 274 274 272 268 263 263 264 265 266 266 266 267 267 266 263 258 254 250 247 247 246 245 245 244 243 243 243 243 244 242 240 237 235 233 234 235 237 239 240 241 241 240
289 291 292 293 294 296 298 300 301 301 301 301 300 300 300 299 299 299 299 299 299 299 298 298 297 296 295 294 293 292 290 289 287 286 284 283 281 280 278 276 275 274 273 271 270 269 268 264 260 261 263 263 263 263 264 264 264 264 260 255 249 247 247 246 244 243 243 243 244 245 245 245 244 241 238 234 231 232 234 235 236 236 238 239 240
290 291 293 294 295 297 299 300 300 300 300 300 300 300 300 301 301 301 301 301 301 301 300 300 299 298 297 296 296 295 293 292 290 288 286 284 282 279 277 275 273 272 271 269 267 266 265 263 260 258 260 261 261 261 261 262 262 262 260 257 253 250 249 248 245 243 241 241 243 245 246 246 245 242 238 235 232 231 232 234 234 235 236 236 237
291 292 293 295 297 298 299 299 299 299 300 300 301 301 302 302 303 303 303 303 303 302 302 302 301 301 300 299 299 298 297 296 294 292 289 287 284 281 278 275 272 270 268 267 265 263 262 261 259 257 257 258 259 259 259 259 259 260 260 258 256 254 251 249 248 246 244 243 243 244 245 246 245 240 237 237 236 234 232 233 233 234 236 236 237
292 293 294 296 297 297 298 299 299 300 301 301 302 302 303 304 304 304 304 304 304 304 304 303 303 303 303 302 301 300 300 299 297 295 292 289 286 282 279 275 272 269 267 265 263 261 259 258 257 255 254 255 257 257 257 257 256 256 258 258 259 258 254 250 249 249 247 245 243 241 243 245 244 239 236 237 237 236 235 234 234 234 235 237 238
292 294 295 296 297 297 298 299 299 300 301 302 303 303 304 305 305 306 306 306 306 306 307 307 307 307 307 306 306 306 305 304 302 300 296 293 288 284 279 275 271 268 266 263 261 259 257 255 254 253 251 252 254 254 254 255 254 253 254 256 258 258 255 250 248 249 248 247 244 240 240 243 244 240 238 237 237 237 238 238 237 236 237 239 240
292 294 295 295 296 296 297 298 299 301 302 303 304 305 306 306 307 308 308 309 310 310 311 312 312 312 312 312 312 313 312 311 309 306 302 298 293 288 282 277 271 267 264 262 259 256 254 252 251 250 248 249 250 251 251 252 253 252 252 253 254 256 256 252 249 247 247 246 243 239 238 242 243 239 236 236 237 239 240 239 238 236 237 238 237
292 293 294 294 295 296 298 300 301 303 304 305 306 306 307 308 309 310 311 313 314 315 316 316 316 317 318 319 319 320 319 318 316 312 308 303 298 293 288 282 276 269 264 260 257 254 251 249 247 246 245 245 247 249 248 249 250 250 250 250 252 254 255 253 251 249 246 244 243 239 236 238 240 238 234 235 240 244 243 239 237 235 234 235 235
291 291 292 293 296 298 300 302 303 304 305 306 307 308 310 311 312 314 316 317 318 319 320 320 320 321 323 325 326 327 326 324 321 317 312 308 304 299 295 289 283 274 267 261 257 253 249 245 243 241 241 241 244 246 246 245 247 248 249 249 249 250 251 251 250 249 246 243 243 242 239 237 237 236 234 235 241 245 243 238 236 235 234 235 236
289 291 293 296 298 300 301 303 304 305 306 307 309 311 313 314 316 318 320 322 323 323 323 324 324 326 328 329 330 331 331 329 325 320 316 313 309 305 300 295 289 281 271 262 257 252 246 241 238 237 237 238 240 243 243 243 243 245 246 247 246 245 247 250 249 248 246 243 241 240 240 239 236 234 233 234 236 237 236 234 235 236 237 237 237
290 293 296 298 299 300 302 303 304 306 308 310 312 314 316 318 321 323 325 326 326 327 327 328 329 330 331 333 334 335 335 333 329 325 322 318 313 307 303 298 293 286 276 266 257 250 244 238 234 233 234 234 236 239 240 239 240 241 242 244 244 243 245 247 247 244 243 241 238 237 237 238 235 233 233 234 233 231 230 230 232 234 235 236 236
292 294 296 298 299 300 302 304 305 307 309 312 315 317 320 323 325 327 329 329 329 330 331 331 332 333 334 335 337 339 340 338 333 330 328 323 317 310 304 298 293 288 281 271 259 250 243 237 232 230 231 232 233 235 236 235 236 238 239 241 243 243 244 246 245 242 240 240 240 237 234 232 232 233 234 234 230 228 228 229 231 233 235 236 238
293 295 296 298 300 301 303 304 306 308 312 315 318 321 324 327 329 330 331 331 332 333 334 335 335 336 336 338 340 342 343 341 336 334 334 330 324 317 309 301 293 287 283 276 265 253 243 237 233 230 230 231 232 232 232 232 233 233 235 238 240 240 241 240 239 239 241 244 248 245 235 229 228 231 232 231 228 226 227 230 232 235 238 240 242
294 296 297 299 301 302 304 305 308 311 315 319 322 325 328 329 330 331 333 334 334 336 338 338 339 339 339 340 342 345 346 344 341 340 341 338 332 326 319 309 297 288 281 276 269 258 247 239 234 231 229 229 232 233 230 229 230 230 230 231 233 232 230 230 231 236 242 246 248 248 243 236 231 230 229 228 228 229 230 231 233 235 238 239 240
296 298 300 301 303 304 305 307 309 312 316 321 325 328 330 331 332 334 335 336 337 339 340 340 341 342 343 343 344 347 349 348 346 345 345 342 337 333 328 319 307 294 284 276 269 263 254 243 237 233 228 222 225 234 232 227 226 228 228 227 227 227 227 229 232 237 241 244 245 247 249 246 238 234 233 234 235 236 237 237 237 237 237 237 238
299 301 303 304 306 307 308 308 310 314 318 323 327 329 330 333 335 336 338 339 339 340 341 342 344 346 346 346 347 349 351 351 349 348 348 346 342 338 334 327 318 304 291 280 271 264 259 250 241 237 229 217 213 226 234 229 224 224 225 226 226 226 228 231 232 231 233 238 240 241 244 244 240 237 239 241 241 243 244 244 243 240 238 238 238
302 304 306 307 308 308 309 311 313 316 320 324 328 330 332 335 337 338 340 341 341 342 343 344 346 348 349 348 348 350 352 353 352 351 351 349 346 343 340 334 326 314 300 288 277 268 262 255 247 240 231 218 210 216 227 229 225 223 223 225 226 227 229 233 234 233 233 236 237 237 239 240 238 237 238 240 242 244 247 246 244 241 238 237 238
305 307 308 308 309 310 311 312 314 318 322 325 329 332 334 336 337 339 341 341 342 343 344 346 348 350 350 350 349 351 353 355 354 353 353 352 350 348 345 340 334 324 310 298 286 274 267 260 251 244 233 221 214 215 221 225 224 222 222 224 225 226 229 232 235 235 235 235 237 240 242 243 243 242 241 241 243 246 247 246 244 241 240 240 242
308 309 310 310 310 310 311 312 315 319 323 327 330 333 335 337 338 340 341 342 342 344 346 347 349 351 351 351 351 352 354 356 356 355 355 355 353 351 349 346 343 337 326 312 297 283 273 265 256 248 237 224 216 216 221 225 222 220 221 224 224 225 228 230 232 235 236 236 239 243 246 247 247 246 245 245 245 248 249 247 245 245 245 247 249
312 312 312 312 312 311 311 314 318 323 326 329 332 334 336 338 340 341 341 342 344 346 347 347 349 351 352 352 352 352 354 356 357 357 358 357 356 354 353 350 348 344 338 326 313 297 283 272 262 251 241 230 221 218 221 227 227 221 221 224 226 228 230 231 234 238 240 241 242 243 245 248 250 250 249 248 247 248 248 248 248 248 249 250 251
315 315 315 314 314 314 315 318 323 327 330 332 333 335 338 340 341 342 343 344 346 347 347 346 348 351 353 353 353 353 354 357 358 359 359 359 358 357 356 353 350 348 345 338 328 315 298 283 271 258 245 234 226 222 223 228 231 230 226 225 225 228 231 233 236 239 241 242 242 242 244 247 251 252 252 251 250 249 248 247 248 248 248 249 250
319 319 318 318 318 318 319 322 326 330 332 333 334 336 339 341 342 344 345 346 347 347 346 346 348 352 353 354 354 354 355 357 359 1 0 0 360 359 358 357 355 353 351 348 342 332 317 300 284 268 252 236 226 223 224 228 232 234 236 236 232 228 228 230 233 235 237 239 241 241 243 247 250 252 252 251 251 250 250 249 249 249 248 248 249
324 325 324 322 322 323 324 325 328 331 334 336 336 337 340 343 345 346 347 347 346 346 346 346 348 351 354 355 355 356 356 358 0 1 1 1 1 0 360 360 359 357 356 355 353 347 337 320 302 284 266 248 232 224 224 229 233 234 236 240 242 241 238 235 233 232 233 235 236 237 239 243 247 250 251 251 250 251 251 252 251 249 248 248 249
329 330 329 327 327 327 327 328 331 333 336 338 338 338 340 343 346 347 347 346 345 345 346 347 348 351 353 355 356 357 357 358 360 1 2 3 3 2 2 2 1 360 359 358 358 357 352 341 322 301 279 262 246 232 227 229 234 236 235 236 239 242 244 245 244 241 238 237 236 236 237 240 243 247 249 250 251 252 253 253 252 250 249 249 250
333 332 330 329 331 331 330 330 332 334 336 338 339 339 340 343 345 346 347 346 345 345 346 347 348 350 353 355 357 358 358 358 359 2 4 4 4 4 4 4 4 2 0 -0 1 1 360 353 340 322 297 273 258 246 236 233 236 241 243 240 238 238 240 244 246 246 244 242 241 241 241 242 244 246 247 247 249 250 251 251 250 250 249 248 248
335 333 332 333 334 334 332 331 333 335 337 338 339 339 340 341 344 346 347 346 346 346 347 348 348 349 351 355 358 359 358 358 359 2 4 5 5 6 6 5 5 5 3 1 1 2 2 359 353 342 323 296 271 256 247 241 241 244 248 249 247 243 240 240 241 243 244 244 243 244 245 246 245 244 244 244 245 245 246 247 247 248 248 248 247
336 335 336 337 337 336 334 333 336 338 339 339 339 339 340 341 343 345 346 346 346 347 348 348 349 349 350 354 357 359 359 359 359 1 4 6 6 7 7 6 6 6 4 2 1 1 1 -0 358 354 344 326 297 271 257 249 246 247 250 253 253 252 248 245 242 242 241 241 241 242 243 244 244 243 243 242 242 243 243 244 244 245 246 247 247
339 340 341 339 339 339 338 338 340 342 341 340 339 339 341 343 344 344 345 345 347 349 349 349 349 349 349 352 356 358 358 359 360 1 3 6 7 8 8 7 7 6 5 3 1 359 359 360 359 357 354 346 329 299 275 262 254 250 251 254 255 256 255 253 250 248 246 243 240 238 237 238 239 240 240 241 241 241 241 241 242 243 243 244 245
343 346 345 342 343 343 342 342 344 344 342 340 338 339 342 343 343 343 344 345 347 349 350 349 349 350 350 350 353 356 358 359 0 0 1 4 7 9 9 9 8 7 6 5 2 359 357 357 358 358 356 353 347 333 305 279 265 258 256 256 255 256 257 257 255 253 251 248 246 243 240 238 237 237 238 238 239 239 239 240 240 241 241 242 243
345 347 345 344 345 345 344 344 345 344 342 340 339 340 342 343 342 342 344 346 347 349 349 350 350 351 350 349 350 354 357 359 360 0 1 2 5 8 9 10 9 8 6 5 3 0 357 355 355 355 355 354 352 349 337 314 286 270 263 262 259 256 255 254 255 254 253 251 249 248 246 245 243 242 241 240 240 241 241 241 242 242 243 243 244
341 343 342 342 342 342 342 343 343 343 343 341 341 342 343 342 341 342 344 345 347 348 349 350 351 351 350 350 350 352 355 357 358 359 360 1 3 6 8 10 10 10 9 6 4 2 359 357 354 352 353 353 353 351 348 339 320 295 276 268 266 265 261 255 252 251 251 251 250 249 248 248 248 247 246 245 244 244 244 245 246 246 247 247 248
332 334 335 336 337 338 339 339 339 341 342 342 341 342 342 342 341 343 344 345 346 347 348 350 350 351 351 352 351 351 352 354 356 357 358 359 1 3 6 8 10 11 11 9 7 4 1 359 355 351 350 349 350 349 349 346 339 325 303 283 272 271 270 266 259 253 251 250 249 248 246 246 246 247 247 247 248 249 249 248 247 247 248 248 248
323 325 328 330 332 333 335 336 336 337 340 341 342 342 341 341 342 343 344 344 344 345 347 348 349 350 352 353 352 352 351 352 353 355 356 357 358 0 2 5 7 9 10 11 10 7 5 2 358 353 349 347 345 344 344 344 343 338 328 311 292 279 275 273 269 263 258 254 251 250 248 245 244 245 245 246 247 249 251 251 250 249 248 247 246
316 319 321 324 326 328 330 332 332 333 336 339 341 340 340 340 341 342 343 343 343 344 345 346 347 349 352 353 353 352 351 351 351 353 355 355 356 357 359 1 4 6 8 10 10 10 8 5 2 357 351 346 343 340 339 339 339 338 335 329 317 301 287 279 275 272 268 262 257 254 252 249 247 247 247 246 246 246 247 248 248 249 249 248 247
311 315 317 319 321 324 325 327 329 330 332 335 338 338 338 339 339 340 341 341 341 342 343 344 346 347 349 350 352 353 353 352 351 352 353 354 354 355 356 358 360 2 5 7 9 10 9 8 5 2 356 349 343 338 336 334 334 333 332 330 325 318 306 294 284 277 273 269 265 261 257 254 252 250 248 247 246 245 244 244 244 244 245 245 244
309 312 314 316 318 319 320 323 325 327 328 331 333 335 335 336 337 338 338 339 340 340 341 342 344 345 346 347 350 352 353 352 351 351 351 352 353 353 353 354 356 358 0 2 5 7 8 8 6 4 1 355 347 341 335 332 329 327 326 325 323 320 314 306 296 287 279 273 269 266 262 259 257 254 251 248 246 243 242 242 241 240 239 238 237
Height
5784 5783 5782 5781 5781 5780 5779 5779 5778 5777 5776 5774 5773 5772 5771 5770 5770 5769 5768 5767 5766 5765 5764 5762 5761 5760 5760 5759 5758 5757 5755 5754 5753 5751 5750 5748 5746 5744 5743 5741 5740 5738 5736 5734 5732 5731 5731 5730 5730 5730 5730 5730 5730 5730 5730 5731 5732 5732 5733 5734 5735 5736 5737 5738 5741 5742 5743 5745 5747 5748 5749 5750 5750 5752 5753 5754 5755 5756 5758 5759 5760 5761 5762 5762 5762
5780 5779 5779 5778 5777 5776 5776 5775 5774 5773 5772 5771 5770 5769 5768 5766 5766 5765 5764 5763 5762 5761 5759 5758 5757 5756 5755 5754 5754 5753 5751 5750 5749 5748 5746 5744 5742 5740 5739 5737 5736 5735 5733 5731 5729 5728 5727 5727 5726 5725 5725 5725 5726 5726 5726 5726 5727 5728 5728 5729 5730 5731 5733 5734 5736 5737 5738 5741 5743 5743 5744 5746 5747 5747 5749 5750 5751 5752 5753 5755 5756 5757 5757 5758 5759
5777 5776 5775 5774 5773 5772 5772 5771 5770 5769 5768 5767 5766 5765 5764 5762 5761 5761 5760 5759 5758 5757 5755 5754 5753 5751 5750 5749 5749 5748 5747 5746 5745 5743 5742 5741 5739 5737 5735 5733 5732 5731 5730 5728 5726 5724 5723 5723 5722 5721 5721 5721 5721 5722 5722 5722 5723 5723 5723 5725 5725 5726 5728 5730 5731 5732 5733 5736 5737 5738 5741 5743 5743 5743 5744 5745 5746 5748 5750 5751 5752 5753 5754 5755 5755
5773 5773 5772 5771 5770 5769 5768 5767 5766 5765 5764 5763 5762 5761 5760 5758 5757 5756 5755 5754 5753 5752 5751 5750 5748 5747 5746 5744 5743 5743 5742 5741 5740 5739 5738 5736 5735 5733 5731 5729 5728 5727 5726 5724 5722 5721 5719 5718 5718 5717 5716 5717 5717 5717 5717 5718 5718 5718 5719 5720 5721 5722 5724 5725 5726 5727 5728 5730 5732 5733 5735 5737 5738 5739 5739 5740 5743 5746 5747 5747 5748 5750 5751 5751 5752
5770 5769 5768 5767 5766 5765 5764 5763 5762 5761 5760 5759 5758 5757 5755 5754 5753 5752 5751 5750 5749 5747 5746 5745 5744 5742 5741 5739 5738 5737 5736 5736 5735 5734 5733 5731 5730 5729 5727 5725 5724 5722 5721 5720 5719 5717 5716 5715 5714 5713 5712 5712 5712 5712 5712 5713 5713 5714 5714 5715 5716 5718 5719 5720 5722 5722 5723 5725 5727 5729 5730 5732 5734 5735 5736 5737 5740 5742 5743 5742 5744 5747 5747 5746 5747
5766 5765 5764 5763 5762 5761 5760 5759 5758 5757 5756 5755 5753 5752 5751 5750 5749 5747 5746 5745 5744 5742 5741 5740 5739 5737 5736 5735 5733 5732 5731 5730 5729 5729 5728 5726 5725 5724 5723 5721 5720 5718 5717 5716 5714 5713 5712 5711 5710 5709 5708 5707 5707 5707 5707 5708 5708 5709 5709 5709 5711 5713 5714 5716 5717 5718 5719 5721 5723 5724 5726 5727 5729 5731 5732 5733 5735 5737 5737 5738 5739 5742 5741 5740 5742
5763 5762 5761 5760 5759 5758 5757 5755 5754 5753 5752 5750 5749 5747 5746 5745 5744 5743 5741 5740 5739 5737 5736 5735 5733 5732 5731 5729 5728 5727 5726 5725 5724 5723 5722 5721 5720 5719 5718 5717 5716 5714 5713 5711 5710 5708 5707 5707 5706 5704 5703 5703 5703 5703 5702 5703 5704 5704 5704 5704 5706 5707 5708 5710 5712 5713 5714 5716 5717 5719 5720 5722 5724 5726 5727 5728 5730 5731 5732 5734 5735 5736 5736 5736 5738
5759 5758 5757 5756 5755 5754 5753 5751 5750 5749 5747 5746 5744 5743 5741 5740 5739 5738 5736 5735 5734 5732 5731 5729 5728 5727 5725 5724 5723 5721 5720 5719 5718 5717 5717 5716 5715 5714 5713 5712 5711 5710 5708 5707 5705 5704 5703 5702 5701 5700 5698 5697 5698 5698 5697 5697 5698 5699 5700 5700 5701 5702 5703 5704 5706 5707 5708 5710 5712 5713 5715 5717 5719 5720 5722 5724 5724 5725 5728 5729 5729 5730 5731 5732 5733
5756 5754 5753 5752 5751 5750 5748 5747 5746 5745 5743 5741 5739 5738 5737 5735 5734 5733 5731 5730 5728 5727 5725 5724 5723 5721 5720 5718 5717 5715 5714 5713 5712 5711 5711 5710 5709 5708 5707 5706 5705 5704 5703 5702 5701 5699 5698 5697 5696 5695 5693 5692 5692 5692 5692 5691 5692 5693 5695 5695 5696 5697 5698 5699 5700 5701 5703 5705 5707 5708 5709 5712 5713 5715 5717 5719 5720 5722 5724 5724 5723 5724 5725 5727 5729
5752 5750 5749 5748 5747 5746 5744 5742 5742 5740 5738 5737 5735 5733 5732 5730 5729 5727 5726 5725 5723 5721 5720 5718 5717 5715 5714 5712 5711 5709 5708 5707 5705 5704 5704 5704 5703 5702 5701 5700 5699 5699 5698 5697 5696 5694 5693 5692 5691 5690 5689 5688 5687 5687 5687 5686 5687 5687 5688 5689 5690 5691 5692 5693 5694 5696 5697 5699 5702 5703 5704 5705 5707 5708 5711 5714 5715 5716 5717 5718 5718 5719 5720 5722 5726
5747 5746 5745 5744 5743 5742 5740 5738 5737 5736 5734 5732 5730 5729 5727 5726 5724 5722 5721 5719 5718 5716 5714 5712 5711 5709 5707 5706 5704 5703 5701 5700 5699 5698 5697 5696 5696 5695 5694 5693 5693 5693 5692 5691 5690 5689 5688 5687 5686 5685 5684 5683 5682 5682 5681 5681 5681 5682 5682 5683 5684 5685 5686 5687 5688 5690 5692 5694 5696 5698 5698 5699 5700 5702 5704 5707 5708 5709 5711 5712 5713 5714 5715 5718 5721
5743 5742 5741 5740 5739 5737 5735 5734 5733 5731 5729 5727 5726 5724 5723 5721 5719 5717 5716 5714 5712 5710 5709 5707 5705 5703 5701 5700 5698 5696 5695 5693 5692 5691 5690 5689 5688 5688 5687 5686 5686 5686 5686 5685 5684 5683 5682 5681 5680 5679 5679 5678 5677 5677 5675 5675 5675 5676 5676 5677 5678 5679 5681 5682 5683 5685 5687 5689 5690 5692 5693 5693 5694 5696 5698 5699 5701 5703 5706 5707 5708 5710 5711 5713 5715
5739 5739 5738 5736 5734 5733 5731 5730 5728 5726 5724 5723 5721 5719 5718 5716 5714 5713 5711 5709 5707 5705 5703 5701 5699 5697 5695 5693 5691 5690 5688 5686 5685 5683 5682 5682 5681 5680 5679 5679 5678 5677 5678 5678 5678 5677 5676 5676 5674 5673 5673 5673 5672 5671 5670 5669 5669 5669 5670 5670 5672 5673 5675 5676 5677 5678 5680 5681 5683 5685 5686 5687 5689 5690 5691 5693 5695 5697 5699 5700 5703 5705 5707 5709 5710
5736 5735 5733 5732 5730 5728 5727 5725 5724 5722 5720 5718 5716 5714 5713 5711 5709 5708 5706 5704 5701 5699 5697 5695 5693 5691 5689 5687 5685 5683 5681 5679 5678 5676 5675 5674 5673 5672 5671 5671 5670 5669 5669 5670 5670 5670 5670 5669 5669 5668 5667 5666 5666 5665 5664 5664 5663 5663 5664 5665 5666 5668 5669 5670 5671 5672 5673 5674 5676 5678 5680 5681 5682 5683 5686 5688 5690 5691 5693 5696 5698 5700 5702 5704 5704
5732 5731 5729 5727 5725 5724 5723 5721 5719 5717 5715 5713 5711 5710 5708 5706 5704 5702 5700 5698 5696 5694 5692 5689 5687 5685 5682 5680 5678 5676 5674 5672 5670 5669 5667 5666 5665 5664 5663 5663 5662 5661 5661 5661 5661 5662 5663 5662 5662 5662 5661 5660 5659 5659 5659 5658 5658 5658 5659 5659 5660 5661 5662 5664 5665 5666 5667 5668 5669 5671 5673 5674 5675 5677 5680 5683 5685 5687 5689 5691 5692 5694 5696 5697 5698
5728 5727 5725 5723 5721 5719 5718 5717 5715 5713 5711 5708 5706 5705 5703 5701 5699 5697 5695 5692 5690 5688 5685 5683 5681 5678 5675 5673 5670 5668 5666 5664 5662 5660 5659 5657 5656 5655 5654 5654 5653 5653 5652 5652 5652 5653 5654 5655 5654 5654 5654 5654 5653 5653 5652 5652 5653 5653 5653 5653 5654 5654 5655 5656 5658 5660 5661 5662 5663 5665 5666 5667 5668 5671 5673 5676 5678 5682 5683 5683 5685 5688 5689 5691 5692
5724 5723 5721 5719 5717 5715 5714 5712 5711 5708 5706 5704 5702 5700 5698 5696 5694 5692 5689 5687 5684 5681 5679 5676 5674 5671 5668 5666 5663 5660 5658 5655 5653 5651 5649 5647 5646 5645 5644 5643 5643 5643 5643 5643 5644 5644 5645 5646 5647 5647 5647 5647 5646 5646 5646 5646 5647 5647 5647 5647 5648 5648 5648 5649 5651 5653 5654 5655 5657 5658 5659 5660 5662 5664 5666 5668 5671 5674 5675 5675 5678 5681 5683 5685 5687
5720 5718 5717 5715 5713 5711 5710 5708 5706 5704 5702 5700 5698 5695 5693 5691 5689 5686 5684 5681 5678 5675 5672 5669 5666 5664 5661 5658 5655 5652 5649 5647 5644 5641 5639 5637 5636 5634 5633 5632 5632 5632 5632 5633 5634 5635 5635 5636 5638 5639 5639 5639 5639 5639 5639 5640 5641 5641 5642 5641 5642 5642 5643 5643 5644 5646 5648 5649 5650 5652 5653 5655 5657 5659 5660 5661 5663 5667 5668 5670 5672 5674 5677 5679 5681
5716 5714 5713 5711 5709 5707 5706 5704 5702 5700 5698 5696 5693 5691 5689 5686 5684 5681 5679 5676 5673 5670 5666 5663 5660 5657 5654 5651 5648 5644 5641 5638 5635 5631 5628 5626 5625 5623 5622 5621 5620 5620 5620 5621 5623 5624 5625 5626 5628 5630 5631 5631 5632 5633 5633 5634 5635 5635 5635 5636 5636 5637 5637 5638 5638 5640 5642 5643 5644 5646 5647 5649 5651 5653 5654 5655 5657 5660 5662 5664 5666 5669 5671 5673 5676
5712 5710 5709 5707 5705 5704 5702 5700 5698 5696 5694 5692 5689 5687 5684 5682 5679 5676 5674 5671 5668 5664 5661 5657 5654 5651 5647 5644 5640 5637 5634 5629 5625 5621 5618 5615 5613 5611 5610 5609 5608 5607 5608 5609 5610 5613 5615 5617 5618 5620 5621 5623 5624 5625 5626 5627 5628 5629 5629 5630 5631 5632 5632 5632 5633 5634 5636 5637 5638 5640 5641 5643 5645 5647 5648 5650 5652 5654 5656 5658 5660 5664 5666 5667 5669
5708 5707 5705 5703 5702 5700 5698 5696 5694 5692 5690 5688 5685 5683 5680 5678 5675 5672 5669 5666 5662 5659 5655 5652 5648 5644 5641 5637 5633 5629 5625 5621 5615 5611 5607 5604 5601 5599 5597 5596 5595 5595 5595 5596 5598 5600 5603 5606 5608 5610 5612 5614 5616 5617 5619 5620 5621 5622 5623 5624 5626 5626 5626 5627 5627 5628 5630 5631 5633 5634 5636 5637 5639 5641 5643 5645 5647 5649 5651 5652 5655 5658 5660 5661 5664
5704 5703 5701 5700 5698 5696 5695 5693 5691 5689 5686 5684 5681 5679 5676 5673 5671 5667 5664 5661 5657 5654 5650 5646 5642 5638 5634 5630 5626 5621 5617 5612 5606 5601 5597 5592 5589 5586 5584 5583 5583 5582 5582 5583 5585 5588 5591 5594 5597 5600 5602 5604 5607 5609 5611 5612 5614 5616 5617 5618 5620 5621 5621 5621 5622 5623 5624 5626 5627 5629 5631 5632 5633 5635 5637 5639 5641 5643 5645 5647 5649 5652 5653 5655 5658
5701 5699 5698 5696 5695 5693 5691 5689 5687 5685 5682 5680 5677 5675 5672 5669 5666 5663 5660 5656 5653 5649 5645 5641 5637 5633 5628 5624 5619 5614 5609 5604 5598 5593 5587 5582 5578 5575 5572 5571 5570 5570 5570 5571 5572 5575 5579 5582 5586 5590 5593 5595 5597 5600 5603 5605 5607 5609 5611 5612 5614 5615 5615 5615 5616 5617 5619 5621 5622 5623 5625 5627 5628 5630 5632 5634 5636 5638 5640 5641 5642 5645 5646 5648 5651
5697 5696 5695 5693 5691 5690 5688 5686 5683 5681 5679 5676 5673 5671 5668 5665 5662 5659 5656 5652 5649 5645 5641 5637 5633 5629 5624 5619 5614 5609 5603 5597 5591 5585 5579 5574 5569 5565 5562 5560 5559 5559 5559 5560 5561 5564 5567 5571 5575 5579 5583 5586 5588 5591 5594 5597 5599 5602 5604 5606 5608 5609 5609 5610 5611 5612 5614 5615 5617 5618 5620 5622 5624 5626 5627 5629 5630 5632 5633 5634 5636 5638 5640 5642 5644
5694 5693 5692 5690 5688 5686 5684 5682 5680 5678 5675 5672 5670 5667 5664 5661 5658 5655 5652 5648 5644 5640 5636 5633 5628 5624 5619 5615 5609 5604 5598 5591 5585 5578 5572 5567 5562 5557 5554 5552 5550 5549 5549 5550 5551 5554 5557 5561 5565 5569 5573 5577 5580 5583 5585 5589 5592 5595 5597 5599 5601 5602 5603 5605 5606 5608 5609 5610 5611 5612 5614 5616 5618 5620 5621 5622 5624 5626 5627 5629 5630 5632 5634 5636 5637
5692 5690 5688 5687 5685 5683 5681 5679 5677 5674 5672 5669 5666 5664 5661 5657 5654 5651 5648 5644 5640 5637 5633 5629 5624 5619 5615 5610 5605 5599 5593 5586 5580 5573 5567 5561 5556 5551 5547 5545 5543 5542 5541 5542 5543 5545 5548 5551 5555 5560 5564 5568 5571 5574 5577 5581 5584 5587 5590 5592 5594 5596 5598 5599 5601 5602 5603 5603 5604 5606 5608 5609 5611 5613 5614 5615 5618 5619 5621 5622 5624 5625 5627 5629 5631
5689 5687 5686 5684 5682 5680 5678 5676 5674 5671 5669 5666 5663 5660 5657 5654 5650 5648 5644 5640 5637 5633 5629 5625 5621 5616 5611 5606 5601 5595 5588 5582 5576 5570 5563 5557 5551 5546 5541 5538 5537 5535 5535 5535 5536 5537 5540 5543 5547 5551 5555 5558 5562 5566 5569 5573 5577 5580 5582 5585 5587 5590 5592 5593 5594 5596 5596 5596 5597 5600 5601 5603 5605 5607 5608 5609 5611 5613 5615 5617 5618 5620 5621 5623 5625
5686 5685 5683 5681 5679 5677 5675 5673 5671 5669 5666 5663 5660 5657 5654 5651 5647 5644 5641 5637 5633 5630 5625 5621 5617 5612 5608 5603 5597 5591 5585 5578 5572 5565 5559 5553 5547 5541 5537 5533 5531 5530 5529 5529 5529 5531 5533 5536 5539 5543 5547 5551 5554 5558 5562 5566 5569 5572 5575 5578 5581 5584 5586 5587 5587 5589 5589 5589 5591 5593 5595 5597 5598 5600 5602 5603 5605 5607 5609 5611 5613 5615 5616 5618 5620
5684 5682 5681 5679 5677 5674 5672 5670 5668 5666 5663 5660 5657 5654 5651 5648 5644 5641 5638 5634 5630 5626 5622 5618 5613 5608 5603 5599 5594 5588 5581 5574 5567 5560 5553 5547 5542 5537 5533 5529 5526 5525 5525 5524 5524 5525 5527 5529 5532 5536 5540 5544 5547 5550 5554 5558 5562 5564 5568 5571 5574 5578 5579 5579 5580 5582 5583 5583 5585 5587 5589 5591 5592 5593 5595 5596 5598 5600 5602 5604 5606 5608 5610 5612 5613
5681 5679 5678 5676 5674 5671 5669 5667 5665 5663 5660 5658 5655 5651 5648 5645 5642 5638 5635 5631 5627 5623 5619 5615 5610 5605 5599 5594 5589 5583 5577 5570 5562 5556 5550 5544 5538 5533 5529 5525 5523 5521 5520 5520 5520 5520 5522 5523 5526 5529 5533 5538 5542 5545 5547 5551 5554 5557 5560 5563 5566 5569 5571 5572 5573 5574 5576 5577 5580 5582 5585 5586 5587 5588 5589 5591 5592 5594 5596 5598 5600 5602 5604 5605 5607
5678 5676 5674 5672 5670 5668 5666 5664 5662 5660 5658 5655 5653 5649 5646 5643 5639 5635 5632 5628 5624 5620 5616 5612 5607 5602 5597 5592 5586 5580 5574 5568 5561 5554 5548 5541 5536 5530 5526 5522 5520 5518 5517 5516 5516 5517 5517 5519 5521 5524 5527 5532 5537 5539 5541 5544 5547 5551 5554 5557 5560 5562 5564 5565 5566 5567 5569 5571 5574 5576 5579 5581 5582 5583 5584 5585 5586 5588 5590 5592 5594 5596 5597 5598 5600
5675 5673 5672 5670 5667 5665 5663 5661 5659 5657 5655 5653 5650 5647 5643 5640 5636 5633 5629 5625 5621 5617 5613 5609 5605 5600 5595 5590 5585 5579 5573 5567 5560 5553 5546 5540 5534 5529 5524 5521 5518 5515 5514 5513 5513 5513 5514 5515 5516 5519 5522 5526 5530 5533 5536 5538 5541 5545 5548 5551 5553 5556 5558 5559 5560 5562 5563 5565 5567 5570 5572 5574 5576 5577 5578 5579 5581 5583 5585 5587 5589 5590 5591 5592 5593
5673 5671 5669 5667 5665 5663 5661 5659 5657 5655 5653 5650 5648 5645 5641 5638 5635 5631 5627 5623 5619 5615 5611 5607 5603 5598 5593 5588 5583 5578 5572 5565 5558 5552 5546 5539 5533 5528 5523 5520 5517 5514 5512 5511 5510 5510 5510 5511 5513 5515 5518 5522 5525 5527 5530 5533 5536 5539 5542 5545 5547 5550 5552 5553 5555 5556 5558 5559 5561 5563 5566 5568 5570 5571 5573 5574 5576 5578 5580 5582 5583 5584 5585 5586 5588
5670 5668 5666 5664 5662 5661 5659 5657 5655 5653 5651 5648 5646 5643 5640 5637 5633 5629 5625 5621 5617 5613 5609 5604 5601 5596 5592 5586 5581 5576 5570 5564 5558 5551 5545 5538 5532 5527 5522 5518 5515 5513 5511 5509 5508 5508 5508 5508 5510 5511 5513 5517 5520 5523 5525 5528 5530 5533 5536 5539 5541 5543 5545 5547 5549 5550 5552 5554 5556 5558 5560 5562 5564 5566 5568 5570 5572 5573 5575 5576 5578 5579 5580 5581 5582
5668 5666 5664 5662 5660 5658 5657 5655 5653 5651 5649 5646 5644 5641 5638 5635 5631 5628 5624 5620 5615 5611 5606 5602 5599 5595 5590 5585 5580 5575 5569 5563 5557 5551 5544 5538 5532 5527 5522 5518 5515 5513 5510 5508 5507 5506 5505 5506 5507 5508 5510 5512 5516 5518 5520 5522 5524 5527 5530 5533 5535 5537 5539 5541 5543 5544 5546 5548 5550 5552 5555 5556 5558 5560 5561 5563 5566 5567 5569 5570 5572 5573 5574 5575 5576
5665 5663 5662 5660 5658 5656 5654 5653 5651 5649 5647 5644 5642 5639 5636 5633 5630 5626 5622 5618 5613 5609 5605 5601 5597 5594 5589 5584 5579 5574 5569 5563 5557 5550 5544 5538 5532 5527 5523 5519 5516 5513 5511 5508 5506 5505 5504 5504 5505 5506 5507 5509 5511 5514 5516 5518 5519 5521 5524 5527 5529 5532 5534 5536 5537 5539 5541 5543 5545 5547 5549 5551 5552 5554 5555 5557 5559 5561 5563 5564 5566 5567 5568 5570 5571
5663 5661 5660 5658 5656 5654 5652 5651 5649 5647 5645 5642 5640 5637 5635 5632 5628 5624 5620 5616 5612 5608 5604 5600 5596 5592 5588 5584 5579 5574 5568 5562 5556 5550 5544 5538 5533 5528 5523 5520 5517 5514 5511 5509 5507 5505 5504 5503 5503 5504 5505 5507 5508 5511 5513 5515 5516 5517 5519 5521 5523 5526 5528 5530 5532 5534 5535 5537 5539 5541 5544 5545 5547 5548 5550 5551 5552 5554 5556 5558 5560 5561 5562 5564 5565
5661 5659 5657 5656 5654 5652 5650 5649 5647 5645 5643 5640 5637 5635 5632 5629 5625 5622 5618 5614 5610 5607 5603 5599 5595 5592 5588 5583 5578 5573 5568 5562 5556 5551 5545 5540 5534 5529 5524 5520 5517 5514 5512 5509 5507 5505 5504 5503 5502 5502 5503 5504 5506 5507 5509 5511 5513 5514 5515 5516 5518 5520 5522 5524 5526 5528 5530 5532 5533 5535 5537 5539 5541 5543 5544 5545 5547 5548 5550 5552 5554 5555 5557 5558 5559
5659 5657 5655 5654 5652 5650 5648 5647 5645 5643 5641 5638 5636 5633 5630 5627 5623 5620 5617 5613 5609 5606 5602 5597 5594 5590 5587 5583 5578 5573 5568 5563 5558 5553 5547 5541 5535 5530 5525 5521 5518 5515 5512 5510 5508 5506 5505 5503 5502 5502 5502 5502 5504 5505 5507 5508 5510 5511 5513 5514 5514 5516 5517 5519 5521 5523 5525 5526 5528 5530 5531 5533 5535 5537 5539 5540 5541 5543 5544 5546 5548 5549 5551 5552 5554
5657 5656 5654 5652 5650 5649 5647 5645 5643 5641 5639 5637 5634 5631 5628 5625 5622 5619 5616 5612 5608 5605 5601 5596 5592 5589 5585 5582 5578 5573 5568 5564 5559 5554 5548 5542 5537 5531 5527 5522 5519 5516 5513 5511 5509 5507 5506 5504 5502 5502 5501 5502 5502 5503 5505 5506 5507 5508 5510 5511 5512 5513 5514 5515 5517 5518 5520 5522 5523 5525 5526 5528 5530 5532 5534 5535 5536 5537 5539 5540 5542 5543 5545 5546 5548
5656 5654 5652 5650 5649 5647 5645 5644 5642 5640 5637 5635 5633 5630 5627 5624 5621 5618 5615 5611 5607 5603 5599 5595 5591 5588 5584 5581 5577 5573 5568 5564 5559 5554 5549 5544 5538 5533 5528 5524 5520 5517 5514 5512 5510 5508 5506 5505 5503 5502 5501 5501 5501 5502 5503 5504 5505 5506 5507 5508 5509 5511 5512 5513 5514 5515 5516 5517 5518 5519 5521 5523 5525 5527 5529 5530 5531 5532 5534 5535 5536 5538 5539 5541 5542
5654 5652 5651 5649 5647 5646 5644 5642 5640 5638 5636 5633 5631 5629 5626 5623 5620 5616 5613 5610 5606 5602 5598 5594 5590 5586 5583 5579 5576 5572 5568 5564 5559 5555 5550 5545 5540 5535 5530 5525 5521 5518 5515 5513 5511 5509 5507 5506 5504 5503 5502 5501 5501 5501 5502 5502 5503 5504 5504 5505 5506 5508 5509 5510 5511 5512 5513 5513 5514 5515 5516 5518 5519 5521 5523 5524 5526 5527 5528 5530 5531 5532 5533 5535 5536
5653 5651 5649 5648 5646 5644 5642 5640 5638 5636 5634 5632 5629 5627 5624 5621 5618 5615 5612 5608 5605 5601 5597 5593 5589 5585 5581 5578 5575 5572 5568 5564 5560 5555 5551 5547 5542 5537 5532 5527 5523 5520 5516 5514 5512 5510 5508 5506 5505 5503 5502 5501 5501 5501 5501 5501 5502 5502 5503 5503 5504 5505 5506 5507 5508 5509 5510 5511 5511 5512 5513 5514 5515 5517 5518 5520 5521 5522 5523 5524 5525 5526 5527 5528 5530
5651 5650 5648 5646 5645 5643 5641 5639 5637 5635 5632 5630 5628 5625 5622 5619 5617 5614 5611 5607 5603 5600 5596 5592 5588 5585 5581 5577 5574 5571 5568 5564 5560 5556 5552 5548 5543 5539 5534 5529 5525 5521 5518 5515 5513 5511 5509 5507 5506 5504 5503 5502 5501 5501 5500 5500 5501 5501 5502 5502 5502 5503 5503 5504 5505 5506 5507 5508 5508 5509 5510 5510 5512 5513 5515 5516 5517 5517 5518 5519 5520 5521 5522 5523 5524
5650 5648 5647 5645 5643 5641 5639 5637 5635 5633 5631 5628 5626 5623 5620 5618 5615 5612 5609 5606 5602 5599 5595 5591 5587 5584 5580 5576 5573 5570 5567 5563 5560 5556 5552 5549 5545 5540 5536 5532 5527 5523 5519 5516 5514 5512 5510 5508 5506 5505 5504 5503 5501 5501 5500 5500 5500 5500 5500 5501 5501 5501 5502 5502 5503 5503 5504 5504 5505 5506 5507 5508 5509 5510 5511 5512 5512 5513 5514 5515 5515 5516 5517 5518 5519
5648 5647 5645 5643 5642 5640 5638 5636 5634 5632 5630 5627 5624 5621 5618 5616 5613 5611 5608 5604 5601 5598 5594 5591 5587 5583 5580 5576 5572 5569 5566 5563 5560 5556 5553 5549 5545 5542 5538 5534 5530 5526 5522 5518 5515 5513 5511 5509 5507 5506 5504 5503 5502 5501 5500 5499 5499 5499 5499 5499 5500 5500 5500 5500 5501 5501 5502 5502 5503 5503 5504 5505 5506 5506 5507 5508 5508 5509 5510 5511 5512 5512 5513 5514 5514
5646 5645 5643 5642 5640 5638 5636 5634 5632 5630 5628 5625 5622 5619 5616 5614 5611 5609 5606 5602 5599 5596 5593 5590 5587 5583 5580 5576 5572 5568 5565 5562 5559 5556 5553 5549 5546 5543 5539 5535 5531 5528 5524 5520 5517 5514 5512 5510 5508 5506 5505 5504 5503 5501 5501 5500 5499 5498 5498 5498 5498 5498 5498 5499 5499 5499 5499 5500 5501 5501 5502 5503 5503 5503 5504 5505 5505 5506 5507 5508 5509 5509 5509 5510 5510
5644 5643 5641 5640 5638 5636 5634 5632 5629 5627 5626 5623 5620 5617 5614 5612 5609 5606 5604 5601 5598 5595 5592 5589 5586 5582 5579 5575 5572 5568 5565 5561 5558 5555 5552 5549 5546 5543 5540 5536 5533 5529 5525 5522 5519 5515 5513 5511 5509 5507 5505 5504 5503 5502 5501 5500 5499 5498 5497 5497 5497 5497 5497 5497 5497 5497 5498 5498 5498 5499 5500 5500 5501 5501 5502 5502 5503 5503 5504 5505 5505 5506 5506 5507 5507
5642 5641 5639 5638 5636 5634 5632 5630 5627 5625 5623 5621 5618 5615 5612 5610 5607 5604 5602 5599 5596 5593 5590 5587 5584 5581 5578 5575 5572 5569 5565 5562 5558 5555 5552 5549 5546 5542 5540 5537 5533 5530 5527 5523 5520 5517 5514 5512 5509 5508 5506 5504 5503 5502 5501 5500 5499 5498 5497 5497 5496 5496 5496 5495 5496 5496 5496 5496 5496 5497 5497 5498 5498 5499 5499 5500 5501 5501 5502 5502 5502 5503 5504 5504 5505
5640 5638 5637 5635 5633 5632 5630 5628 5625 5623 5620 5618 5616 5614 5611 5608 5605 5603 5600 5597 5594 5592 5589 5586 5583 5580 5577 5575 5572 5568 5565 5561 5558 5555 5552 5549 5545 5542 5539 5536 5533 5531 5528 5524 5521 5518 5515 5513 5510 5508 5506 5504 5503 5502 5501 5500 5499 5498 5497 5496 5496 5495 5495 5494 5494 5494 5495 5495 5495 5495 5495 5495 5496 5497 5497 5498 5499 5499 5499 5500 5500 5501 5502 5502 5503
5637 5635 5634 5632 5631 5629 5627 5625 5623 5621 5618 5616 5614 5611 5609 5606 5604 5601 5598 5596 5593 5590 5587 5584 5582 5579 5576 5573 5570 5567 5564 5561 5558 5554 5551 5549 5545 5542 5539 5536 5533 5530 5528 5525 5522 5520 5517 5514 5511 5509 5507 5505 5503 5501 5500 5499 5498 5497 5497 5496 5495 5494 5494 5493 5493 5493 5493 5493 5493 5493 5493 5494 5494 5495 5495 5496 5496 5497 5497 5497 5498 5499 5499 5500 5500